Torna al catalogo

TITAN 3C TRANSTAGE R/B

AttivoGEO
NORAD 8918·ROCKET BODY·🇺🇸 United States

Lanciato Jun 26, 1976 da Cape Canaveral Space Force Station

Loading…

TLE

AggiornatoSource: Space-Track

Epoca: Sep 14, 2026, 03:47 UTC

1 08918U 76059C   26257.15813208  .00000113  00000-0  00000-0 0  9998
2 08918   2.5086 259.1771 0009563 283.5080  75.8324  1.00547005 26346

Traccia TITAN 3C TRANSTAGE R/B in tempo reale con AllMySat

Download on the App Store